This is the latest recevied weather packets stored in our database for station/object KB2KMM. If no packets are shown the sender has not sent any weather packets the latest 1 day(s).
| Time | Temp. | Humidity | Pressure | Rain* | Wind** | Luminosity | Snow |
|---|---|---|---|---|---|---|---|
| 1778018405 | 18.33° C | 61% | 1009.6 hPa | 0 mm | 4.02 m/s, 231° | - | - |
| 1778018106 | 18.33° C | 61% | 1009.5 hPa | 0 mm | 2.68 m/s, 218° | - | - |
| 1778017810 | 18.33° C | 61% | 1009.6 hPa | 0 mm | 2.24 m/s, 187° | - | - |
| 1778017505 | 18.33° C | 60% | 1009.5 hPa | 0 mm | 4.47 m/s, 212° | - | - |
| 1778017209 | 18.33° C | 60% | 1009.4 hPa | 0 mm | 1.79 m/s, 212° | - | - |
| 1778016905 | 18.89° C | 59% | 1009.3 hPa | 0 mm | 2.68 m/s, 187° | - | - |
| 1778016609 | 18.89° C | 58% | 1009.3 hPa | 0 mm | 4.02 m/s, 213° | - | - |
| 1778016305 | 18.89° C | 59% | 1009.2 hPa | 0 mm | 3.13 m/s, 217° | - | - |
| 1778016008 | 18.89° C | 60% | 1009.1 hPa | 0 mm | 2.24 m/s, 214° | - | - |
| 1778015707 | 18.89° C | 60% | 1009.2 hPa | 0 mm | 3.13 m/s, 202° | - | - |
| 1778015408 | 18.89° C | 59% | 1009.1 hPa | 0 mm | 3.58 m/s, 219° | - | - |
| 1778015105 | 18.89° C | 59% | 1009 hPa | 0 mm | 4.02 m/s, 233° | - | - |
| 1778014805 | 18.89° C | 58% | 1009.2 hPa | 0 mm | 2.68 m/s, 195° | - | - |
| 1778014506 | 19.44° C | 57% | 1009.1 hPa | 0 mm | 2.68 m/s, 211° | - | - |
| 1778014210 | 19.44° C | 57% | 1009.2 hPa | 0 mm | 3.13 m/s, 214° | - | - |
| 1778013905 | 19.44° C | 59% | 1009.2 hPa | 0 mm | 1.79 m/s, 201° | - | - |
| 1778013612 | 18.89° C | 60% | 1009.2 hPa | 0 mm | 2.68 m/s, 238° | - | - |
| 1778013304 | 18.89° C | 59% | 1009.2 hPa | 0 mm | 2.68 m/s, 219° | - | - |
| 1778013009 | 18.89° C | 60% | 1009.3 hPa | 0 mm | 2.24 m/s, 192° | - | - |
| 1778012705 | 18.89° C | 59% | 1009.3 hPa | 0 mm | 2.24 m/s, 217° | - | - |
| 1778012410 | 19.44° C | 58% | 1009.3 hPa | 0 mm | 2.68 m/s, 189° | - | - |
| 1778012105 | 19.44° C | 59% | 1009.5 hPa | 0 mm | 2.24 m/s, 222° | - | - |
| 1778011808 | 19.44° C | 56% | 1009.6 hPa | 0 mm | 2.24 m/s, 227° | - | - |
| 1778011505 | 20° C | 55% | 1009.6 hPa | 0 mm | 3.13 m/s, 204° | - | - |
| 1778011205 | 20.56° C | 55% | 1009.6 hPa | 0 mm | 2.24 m/s, 189° | - | - |
* Rain latest hour (hover to see other rain measurements)
** Current wind speed in m/s (hover to see current wind gust speed)